Weather in Samolva

Russia / Pskov Oblast     58°17′27″N   27°37′19″E
temp.,
°C
wind,
m/s
gust,
m/s
humid.,
%
clouds,
%
prec.,
mm/h
press.,
hPa
HPBL,
m
20 may, fri
fri2000:00+10ese378799 0.0 1018135
03:00+8ese5108581 0.0 1019366
06:00+7ese61163100 0.0 1018399
09:00+8ese71158100 0.0 1018463
12:00+9ese61160100 0.0 1017569
15:00+9se61171100 0.4 1016569
18:00+9e5979100 1.3 1014394
21:00+9e51078100 1.8 1013332
21 may, sat
sat2100:00+8e61282100 0.7 1012549
03:00+8e41182100 1.5 1012487
06:00+7e497784 0.1 1011361
09:00+10ese597155 0.1 1010496
12:00+12ese694868 0.0 1009649
15:00+14ese5946100 0.0 1007801
18:00+13se3660100 0.0 1006472
21:00+12e5862100 0.1 1007199
22 may, sun
sun2200:00+10ene51062100 0.0 1007238
03:00+8ene7136671 0.0 1009369
06:00+6ene59695 0.0 1010272
09:00+9ne34595 0.0 1011456
12:00+12n555619 0.0 1011663
15:00+12n6753100 0.0 1012806
18:00+12n6751100 0.0 1012470
21:00+10nne356792 0.0 101373
23 may, mon
mon2300:00+8ne356455 0.0 101488
03:00+7ne23646 0.0 101579
06:00+7nnw126629 0.0 101589
09:00+10nnw356244 0.0 1015350
12:00+11n465854 0.0 1015594
15:00+12n46555 0.0 1015616
18:00+13n34545 0.0 1014347
21:00+12nnw11615 0.0 101411
24 may, tue
tue2400:00+10wsw226815 0.0 101518
03:00+9se00815 0.0 101610
06:00+9wsw22795 0.0 101663
09:00+12w12665 0.0 1017216
12:00+14ne126016 0.0 1016853
15:00+14nne335994 0.0 1016397
18:00+15ene1261100 0.0 101564
21:00+14se3360100 0.0 101531